Starlink 11084

operational
NORAD ID: 59717 Int'l Des: 2024-088 Owner: SPXS Country: US Constellation: starlink
LEOCIRCULAR

关于 Starlink 11084

正在加载描述...

实时位置

正在加载3D地球...

即将过境

高度历史

Altitude vs Time

uPlot chart will show altitude changes over time

两行轨道根数

1 59717U 24088K 25258.78626670 .00001776 00000-0 19506-4 0 9991
2 59717 53.1586 108.3358 0000813 80.2451 279.8659 15.69718533 78806
Epoch: Sep 15, 2025 • Age: 14 hours

当前状态

高度 359.8 km
速度 7.70 km/s
星下点 16.38°N, 137.66°E
发射日期 May 10, 2024
运行时间 1.3 years
类型 internet

技术详情

分类 Payload
质量 960.00 kg
干质量 910.00 kg
总质量 960.00 kg
长度 0.30 m
直径 4.10 m
跨度 29.00 m
形状 Box + pan
制造商 SPXS
平台类型 Starlink V2MD
阶段状态 In Orbit
所有者/国家 SPXS/US

大型星座

Loading constellations...